TimeCST,TemperatureF,Dew PointF,Humidity,Sea Level PressureIn,VisibilityMPH,Wind Direction,Wind SpeedMPH,Gust SpeedMPH,PrecipitationIn,Events,Conditions,WindDirDegrees,DateUTC
12:13 AM,19.4,17.6,93,30.00,7.0,SE,4.6,-,N/A,,Clear,140,2013-02-06 06:13:00
12:33 AM,19.4,17.6,93,29.99,7.0,SE,5.8,-,N/A,,Clear,130,2013-02-06 06:33:00
12:53 AM,17.6,17.6,100,29.99,5.0,ESE,5.8,-,N/A,,Clear,120,2013-02-06 06:53:00
1:13 AM,17.6,17.6,100,29.98,7.0,SE,6.9,-,N/A,,Clear,130,2013-02-06 07:13:00
1:34 AM,17.6,17.6,100,29.98,7.0,ESE,5.8,-,N/A,,Mostly Cloudy,120,2013-02-06 07:34:00
1:53 AM,19.4,17.6,93,29.98,7.0,South,4.6,-,N/A,,Overcast,170,2013-02-06 07:53:00
2:13 AM,21.2,19.4,93,29.99,7.0,South,4.6,-,N/A,,Overcast,180,2013-02-06 08:13:00
2:34 AM,23.0,21.2,93,29.99,7.0,South,8.1,-,N/A,,Overcast,180,2013-02-06 08:34:00
2:53 AM,23.0,21.2,93,29.98,10.0,South,8.1,-,N/A,,Overcast,170,2013-02-06 08:53:00
3:13 AM,24.8,21.2,86,29.97,10.0,SSE,8.1,-,N/A,,Overcast,160,2013-02-06 09:13:00
3:33 AM,23.0,21.2,93,29.97,7.0,South,11.5,-,N/A,,Overcast,170,2013-02-06 09:33:00
3:53 AM,23.0,21.2,93,29.97,7.0,SSE,8.1,-,N/A,,Overcast,160,2013-02-06 09:53:00
4:13 AM,23.0,21.2,93,29.95,7.0,SSE,10.4,-,N/A,,Overcast,150,2013-02-06 10:13:00
4:33 AM,21.2,21.2,100,29.95,7.0,SSE,9.2,-,N/A,,Overcast,150,2013-02-06 10:33:00
4:53 AM,21.2,21.2,100,29.95,7.0,SSE,9.2,-,N/A,,Overcast,150,2013-02-06 10:53:00
5:13 AM,21.2,21.2,100,29.95,7.0,SSE,10.4,-,N/A,,Overcast,160,2013-02-06 11:13:00
5:33 AM,23.0,21.2,93,29.95,7.0,SSE,10.4,-,N/A,,Overcast,160,2013-02-06 11:33:00
5:53 AM,23.0,21.2,93,29.94,7.0,SSE,9.2,-,N/A,,Overcast,150,2013-02-06 11:53:00
6:13 AM,23.0,21.2,93,29.93,7.0,SSE,6.9,-,N/A,,Overcast,150,2013-02-06 12:13:00
6:33 AM,23.0,21.2,93,29.92,7.0,SSE,11.5,-,N/A,,Overcast,150,2013-02-06 12:33:00
6:53 AM,24.8,21.2,86,29.90,7.0,SSE,15.0,-,N/A,,Mostly Cloudy,150,2013-02-06 12:53:00
7:13 AM,24.8,21.2,86,29.89,7.0,SSE,13.8,19.6,N/A,,Mostly Cloudy,150,2013-02-06 13:13:00
7:33 AM,24.8,23.0,93,29.88,7.0,SSE,16.1,-,N/A,,Scattered Clouds,160,2013-02-06 13:33:00
7:53 AM,24.8,23.0,93,29.88,7.0,SSE,15.0,-,N/A,,Clear,160,2013-02-06 13:53:00
8:13 AM,26.6,23.0,86,29.87,10.0,South,18.4,-,N/A,,Clear,170,2013-02-06 14:13:00
8:33 AM,26.6,24.8,93,29.87,10.0,SSE,17.3,23.0,N/A,,Clear,160,2013-02-06 14:33:00
8:54 AM,26.6,24.8,93,29.85,10.0,South,18.4,25.3,N/A,,Clear,170,2013-02-06 14:54:00
9:13 AM,28.4,24.8,86,29.84,10.0,South,19.6,27.6,N/A,,Clear,180,2013-02-06 15:13:00
9:33 AM,28.4,26.6,93,29.83,10.0,South,23.0,31.1,N/A,,Clear,180,2013-02-06 15:33:00
9:54 AM,30.2,26.6,86,29.83,10.0,South,21.9,27.6,N/A,,Clear,180,2013-02-06 15:54:00
10:13 AM,30.2,26.6,86,29.84,10.0,South,15.0,-,N/A,,Clear,190,2013-02-06 16:13:00
10:33 AM,30.2,28.4,93,29.83,10.0,South,17.3,-,N/A,,Clear,190,2013-02-06 16:33:00
10:53 AM,33.8,28.4,81,29.83,10.0,South,17.3,24.2,N/A,,Clear,190,2013-02-06 16:53:00
11:13 AM,33.8,30.2,87,29.83,10.0,SSW,16.1,-,N/A,,Clear,200,2013-02-06 17:13:00
11:34 AM,33.8,30.2,87,29.83,10.0,SSW,16.1,-,N/A,,Clear,210,2013-02-06 17:34:00
11:53 AM,35.6,30.2,81,29.82,10.0,SSW,17.3,21.9,N/A,,Clear,200,2013-02-06 17:53:00
12:13 PM,35.6,30.2,81,29.80,10.0,SSW,21.9,25.3,N/A,,Clear,200,2013-02-06 18:13:00
12:33 PM,37.4,30.2,75,29.79,10.0,SSW,16.1,19.6,N/A,,Clear,210,2013-02-06 18:33:00
12:53 PM,37.4,32.0,81,29.79,10.0,SSW,16.1,-,N/A,,Clear,210,2013-02-06 18:53:00
1:13 PM,37.4,32.0,81,29.79,10.0,SW,12.7,-,N/A,,Clear,220,2013-02-06 19:13:00
1:33 PM,39.2,32.0,75,29.79,10.0,SW,11.5,-,N/A,,Clear,220,2013-02-06 19:33:00
1:53 PM,39.2,32.0,75,29.79,10.0,SW,11.5,-,N/A,,Clear,230,2013-02-06 19:53:00
2:13 PM,39.2,32.0,75,29.80,10.0,WSW,10.4,-,N/A,,Clear,240,2013-02-06 20:13:00
2:33 PM,39.2,33.8,81,29.79,10.0,SW,8.1,-,N/A,,Clear,230,2013-02-06 20:33:00
2:53 PM,37.4,33.8,87,29.78,10.0,SW,8.1,-,N/A,,Clear,230,2013-02-06 20:53:00
3:13 PM,37.4,33.8,87,29.78,10.0,SW,6.9,-,N/A,,Clear,230,2013-02-06 21:13:00
3:33 PM,37.4,33.8,87,29.79,10.0,SW,6.9,-,N/A,,Clear,230,2013-02-06 21:33:00
3:53 PM,37.4,33.8,87,29.79,10.0,SW,4.6,-,N/A,,Clear,220,2013-02-06 21:53:00
4:13 PM,37.4,33.8,87,29.79,10.0,SSW,4.6,-,N/A,,Clear,210,2013-02-06 22:13:00
4:34 PM,37.4,33.8,87,29.80,10.0,SW,5.8,-,N/A,,Clear,230,2013-02-06 22:34:00
4:53 PM,35.6,33.8,93,29.80,10.0,West,4.6,-,N/A,,Clear,260,2013-02-06 22:53:00
5:13 PM,35.6,33.8,93,29.81,10.0,WSW,4.6,-,N/A,,Clear,250,2013-02-06 23:13:00
5:34 PM,35.6,33.8,93,29.81,10.0,WSW,3.5,-,N/A,,Clear,240,2013-02-06 23:34:00
5:53 PM,35.6,32.0,87,29.81,10.0,Calm,Calm,-,N/A,,Clear,0,2013-02-06 23:53:00
6:13 PM,35.6,33.8,93,29.82,10.0,SW,4.6,-,N/A,,Clear,230,2013-02-07 00:13:00
6:34 PM,35.6,33.8,93,29.83,10.0,WSW,3.5,-,N/A,,Scattered Clouds,240,2013-02-07 00:34:00
6:53 PM,35.6,32.0,87,29.84,10.0,Calm,Calm,-,N/A,,Clear,0,2013-02-07 00:53:00
7:13 PM,35.6,32.0,87,29.84,10.0,WSW,3.5,-,N/A,,Clear,250,2013-02-07 01:13:00
7:34 PM,33.8,32.0,93,29.86,10.0,Calm,Calm,-,N/A,,Clear,0,2013-02-07 01:34:00
7:53 PM,35.6,32.0,87,29.86,10.0,Calm,Calm,-,N/A,,Clear,0,2013-02-07 01:53:00
8:13 PM,35.6,32.0,87,29.87,10.0,WNW,5.8,-,N/A,,Clear,300,2013-02-07 02:13:00
8:34 PM,35.6,32.0,87,29.87,10.0,NW,3.5,-,N/A,,Clear,320,2013-02-07 02:34:00
8:53 PM,35.6,32.0,87,29.87,10.0,NNW,4.6,-,N/A,,Clear,330,2013-02-07 02:53:00
9:13 PM,35.6,32.0,87,29.88,10.0,Calm,Calm,-,N/A,,Clear,0,2013-02-07 03:13:00
9:33 PM,33.8,30.2,87,29.88,10.0,NNW,4.6,-,N/A,,Clear,340,2013-02-07 03:33:00
9:53 PM,33.8,30.2,87,29.89,10.0,NNW,3.5,-,N/A,,Scattered Clouds,330,2013-02-07 03:53:00
10:13 PM,33.8,30.2,87,29.89,10.0,NW,6.9,-,N/A,,Mostly Cloudy,320,2013-02-07 04:13:00
10:33 PM,33.8,30.2,87,29.90,10.0,NNW,6.9,-,N/A,,Mostly Cloudy,340,2013-02-07 04:33:00
11:13 PM,32.0,30.2,93,29.90,10.0,North,4.6,-,N/A,,Scattered Clouds,350,2013-02-07 05:13:00
11:33 PM,30.2,30.2,100,29.91,7.0,NNW,4.6,-,N/A,,Scattered Clouds,340,2013-02-07 05:33:00
11:54 PM,30.2,28.4,93,29.92,7.0,North,4.6,-,N/A,,Scattered Clouds,350,2013-02-07 05:54:00